Powrót do katalogu

COSMOS 700 DEB

AktywnyPO
NORAD 23308·DEBRIS·🇷🇺 Russia

Wystrzelony Dec 26, 1974 z Plesetsk Cosmodrome

Loading…

Następne Przeloty (najbliższe 24 godziny)

TLE

ŚwieżeSource: Space-Track

Epoka: Sep 14, 2026, 07:03 UTC

1 23308U 74105C   26257.29442069  .00000804  00000-0  57283-3 0  9991
2 23308  82.9444 198.4380 0016945 260.4796 251.7722 13.96207446689260

Śledź COSMOS 700 DEB w czasie rzeczywistym z AllMySat

Download on the App Store